This is the latest recevied weather packets stored in our database for station/object AD0YN. If no packets are shown the sender has not sent any weather packets the latest 10 day(s).
| Time | Temp. | Humidity | Pressure | Rain* | Wind** | Luminosity | Snow |
|---|---|---|---|---|---|---|---|
| 1777427626 | 13.33° C | 63% | 1014.9 hPa | 0 mm | - | 0 W/m² | - |
| 1777427323 | 13.33° C | 64% | 1014.6 hPa | 0 mm | - | 0 W/m² | - |
| 1777427020 | 13.33° C | 63% | 1014.6 hPa | 0 mm | - | 0 W/m² | - |
| 1777426717 | 13.89° C | 61% | 1014.6 hPa | 0 mm | - | 0 W/m² | - |
| 1777426414 | 13.89° C | 62% | 1014.4 hPa | 0 mm | - | 0 W/m² | - |
| 1777426110 | 14.44° C | 61% | 1014.4 hPa | 0 mm | - | 0 W/m² | - |
| 1777425805 | 14.44° C | 61% | 1014 hPa | 0 mm | - | 0 W/m² | - |
| 1777425500 | 14.44° C | 62% | 1014.1 hPa | 0 mm | - | 1 W/m² | - |
| 1777425195 | 14.44° C | 63% | 1014.2 hPa | 0 mm | - | 1 W/m² | - |
| 1777424893 | 14.44° C | 65% | 1014 hPa | 0 mm | - | 2 W/m² | - |
| 1777424588 | 14.44° C | 63% | 1013.9 hPa | 0 mm | - | 4 W/m² | - |
| 1777424283 | 14.44° C | 63% | 1013.8 hPa | 0 mm | - | 7 W/m² | - |
| 1777423980 | 15° C | 63% | 1013.7 hPa | 0 mm | - | 11 W/m² | - |
| 1777423677 | 15° C | 63% | 1013.6 hPa | 0 mm | - | 15 W/m² | - |
| 1777423373 | 15.56° C | 60% | 1013.6 hPa | 0 mm | - | 22 W/m² | - |
| 1777423073 | 15.56° C | 62% | 1013.3 hPa | 0 mm | - | 28 W/m² | - |
| 1777422768 | 15.56° C | 62% | 1013.3 hPa | 0 mm | - | 35 W/m² | - |
| 1777422464 | 15.56° C | 64% | 1013.3 hPa | 0 mm | - | 44 W/m² | - |
| 1777422159 | 15.56° C | 65% | 1013.1 hPa | 0 mm | - | 43 W/m² | - |
| 1777421858 | 15.56° C | 65% | 1013.3 hPa | 0 mm | - | 37 W/m² | - |
| 1777421554 | 15.56° C | 68% | 1013.1 hPa | 0 mm | - | 39 W/m² | - |
| 1777421250 | 15.56° C | 64% | 1013.2 hPa | 0 mm | - | 46 W/m² | - |
| 1777420947 | 15.56° C | 65% | 1013.4 hPa | 0 mm | - | 50 W/m² | - |
| 1777420643 | 16.11° C | 65% | 1013.2 hPa | 0 mm | - | 55 W/m² | - |
| 1777420340 | 16.11° C | 61% | 1013.5 hPa | 0 mm | - | 67 W/m² | - |
* Rain latest hour (hover to see other rain measurements)
** Current wind speed in m/s (hover to see current wind gust speed)